Stations météo

réclame
Mon MeteoGroup
Bari Palese, Italie (16270): Température de l'air & dewpoint: 19.09.2018 11:00:00 - 25.09.2018 11:00:00 (CEST)Bari Palese, Italie (16270): Vitesse du vent: 19.09.2018 11:00:00 - 25.09.2018 11:00:00 (CEST)Bari Palese, Italie (16270): Direction du vent: 19.09.2018 11:00:00 - 25.09.2018 11:00:00 (CEST)Bari Palese, Italie (16270): reduced air pressure: 19.09.2018 11:00:00 - 25.09.2018 11:00:00 (CEST)Bari Palese, Italie (16270): visibility: 19.09.2018 11:00:00 - 25.09.2018 11:00:00 (CEST)Bari Palese, Italie (16270): Quantités de précipitations: 19.09.2018 11:00:00 - 25.09.2018 11:00:00 (CEST)
Date & Time tt [°C] td [°C] ff [km/h] ff [knt] dd ppp [hPa] vv [km] rr [mm]
25.09.2018 11:00:00 19,7 4,8 31 17 N 1026,5 25 -
25.09.2018 10:00:00 - - - - - - - -
25.09.2018 09:00:00 - - - - - - - -
25.09.2018 08:00:00 18,4 3,9 28 15 NNE 1025,2 14 0,0
25.09.2018 07:00:00 - - - - - - - -
25.09.2018 06:00:00 - - - - - - - -
25.09.2018 05:00:00 18,5 6,7 26 14 N 1023,5 14 -
25.09.2018 04:00:00 - - - - - - - -
25.09.2018 03:00:00 - - - - - - - -
25.09.2018 02:00:00 19,6 11,0 22 12 N 1022,7 14 0,0
25.09.2018 01:00:00 - - - - - - - -
25.09.2018 00:00:00 - - - - - - - -
24.09.2018 23:00:00 18,7 12,9 24 13 NNW 1022,0 14 -
24.09.2018 22:00:00 - - - - - - - -
24.09.2018 21:00:00 - - - - - - - -
24.09.2018 20:00:00 22,4 15,6 18 10 NNE 1018,0 14 0,0
24.09.2018 19:00:00 - - - - - - - -
24.09.2018 18:00:00 - - - - - - - -
24.09.2018 17:00:00 26,7 18,3 18 10 NNE 1014,1 14 -
24.09.2018 16:00:00 - - - - - - - -
24.09.2018 15:00:00 - - - - - - - -
24.09.2018 14:00:00 29,5 14,7 28 15 N 1013,4 14 0,0
24.09.2018 13:00:00 - - - - - - - -
24.09.2018 12:00:00 - - - - - - - -
24.09.2018 11:00:00 27,8 15,4 11 6 NNE 1013,8 14 -
24.09.2018 10:00:00 - - - - - - - -
24.09.2018 09:00:00 - - - - - - - -
24.09.2018 08:00:00 23,2 14,6 9 5 S 1013,0 14 0,0
24.09.2018 07:00:00 - - - - - - - -
24.09.2018 06:00:00 - - - - - - - -
24.09.2018 05:00:00 19,6 15,7 4 2 W 1013,6 14 -
24.09.2018 04:00:00 - - - - - - - -
24.09.2018 03:00:00 - - - - - - - -
24.09.2018 02:00:00 22,0 16,8 9 5 SSW 1014,5 14 0,0
24.09.2018 01:00:00 - - - - - - - -
24.09.2018 00:00:00 - - - - - - - -
23.09.2018 23:00:00 22,6 14,7 8 4 SW 1016,4 14 -
23.09.2018 22:00:00 - - - - - - - -
23.09.2018 21:00:00 - - - - - - - -
23.09.2018 20:00:00 25,1 16,5 5 3 SSE 1016,9 10 0,0
23.09.2018 19:00:00 - - - - - - - -
23.09.2018 18:00:00 - - - - - - - -
23.09.2018 17:00:00 28,3 16,3 21 11 E 1017,2 10 -
23.09.2018 16:00:00 - - - - - - - -
23.09.2018 15:00:00 - - - - - - - -
23.09.2018 14:00:00 28,8 17,1 24 13 E 1018,3 10 0,0
23.09.2018 13:00:00 - - - - - - - -
23.09.2018 12:00:00 - - - - - - - -
23.09.2018 11:00:00 29,4 13,5 9 5 ENE 1019,4 10 -
23.09.2018 10:00:00 - - - - - - - -
23.09.2018 09:00:00 - - - - - - - -
23.09.2018 08:00:00 21,7 14,1 8 4 SW 1018,7 10 0,0
23.09.2018 07:00:00 - - - - - - - -
23.09.2018 06:00:00 - - - - - - - -
23.09.2018 05:00:00 17,9 13,4 8 4 S 1018,2 10 -
23.09.2018 04:00:00 - - - - - - - -
23.09.2018 03:00:00 - - - - - - - -
23.09.2018 02:00:00 19,9 13,2 5 3 WNW 1018,7 10 0,0
23.09.2018 01:00:00 - - - - - - - -
23.09.2018 00:00:00 - - - - - - - -
22.09.2018 23:00:00 20,9 14,9 9 5 SSW 1018,1 10 -
22.09.2018 22:00:00 - - - - - - - -
22.09.2018 21:00:00 - - - - - - - -
22.09.2018 20:00:00 24,1 18,6 8 4 SSE 1017,6 10 0,0
22.09.2018 19:00:00 - - - - - - - -
22.09.2018 18:00:00 - - - - - - - -
22.09.2018 17:00:00 27,6 16,9 13 7 ESE 1016,6 10 -
22.09.2018 16:00:00 - - - - - - - -
22.09.2018 15:00:00 - - - - - - - -
22.09.2018 14:00:00 27,1 18,9 21 11 E 1017,4 10 0,0
22.09.2018 13:00:00 - - - - - - - -
22.09.2018 12:00:00 - - - - - - - -
22.09.2018 11:00:00 27,8 15,5 5 3 S 1017,8 10 -
22.09.2018 10:00:00 - - - - - - - -
22.09.2018 09:00:00 - - - - - - - -
22.09.2018 08:00:00 21,3 18,3 8 4 SSW 1017,2 8 0,0
22.09.2018 07:00:00 - - - - - - - -
22.09.2018 06:00:00 - - - - - - - -
22.09.2018 05:00:00 17,5 16,2 11 6 SSW 1016,5 8 -
22.09.2018 04:00:00 - - - - - - - -
22.09.2018 03:00:00 - - - - - - - -
22.09.2018 02:00:00 18,5 16,5 0 0 N 1016,6 8 0,0
22.09.2018 01:00:00 - - - - - - - -
22.09.2018 00:00:00 - - - - - - - -
21.09.2018 23:00:00 20,7 18,3 8 4 SW 1016,5 15 -
21.09.2018 22:00:00 - - - - - - - -
21.09.2018 21:00:00 - - - - - - - -
21.09.2018 20:00:00 23,9 19,7 8 4 SE 1016,0 15 0,0
21.09.2018 19:00:00 - - - - - - - -
21.09.2018 18:00:00 - - - - - - - -
21.09.2018 17:00:00 25,3 19,8 18 10 E 1015,6 15 -
21.09.2018 16:00:00 - - - - - - - -
21.09.2018 15:00:00 - - - - - - - -
21.09.2018 14:00:00 26,0 19,3 18 10 E 1016,0 15 0,0
21.09.2018 13:00:00 - - - - - - - -
21.09.2018 12:00:00 - - - - - - - -
21.09.2018 11:00:00 25,8 19,1 13 7 E 1016,8 11 -
21.09.2018 10:00:00 - - - - - - - -
21.09.2018 09:00:00 - - - - - - - -
21.09.2018 08:00:00 20,7 18,4 5 3 SW 1016,4 11 0,0
21.09.2018 07:00:00 - - - - - - - -
21.09.2018 06:00:00 - - - - - - - -
21.09.2018 05:00:00 18,4 17,1 8 4 SSW 1016,0 11 -
21.09.2018 04:00:00 - - - - - - - -
21.09.2018 03:00:00 - - - - - - - -
21.09.2018 02:00:00 19,1 17,5 9 5 WSW 1016,5 11 0,0
21.09.2018 01:00:00 - - - - - - - -
21.09.2018 00:00:00 - - - - - - - -
20.09.2018 23:00:00 20,3 18,2 8 4 WSW 1017,1 11 -
20.09.2018 22:00:00 - - - - - - - -
20.09.2018 21:00:00 - - - - - - - -
20.09.2018 20:00:00 21,9 18,6 4 2 WNW 1017,1 11 0,0
20.09.2018 19:00:00 - - - - - - - -
20.09.2018 18:00:00 - - - - - - - -
20.09.2018 17:00:00 24,6 19,7 8 4 NNE 1017,1 11 -
20.09.2018 16:00:00 - - - - - - - -
20.09.2018 15:00:00 - - - - - - - -
20.09.2018 14:00:00 25,3 20,2 16 9 NNE 1017,7 11 0,0
20.09.2018 13:00:00 - - - - - - - -
20.09.2018 12:00:00 - - - - - - - -
20.09.2018 11:00:00 24,5 19,5 9 5 N 1019,0 11 -
20.09.2018 10:00:00 - - - - - - - -
20.09.2018 09:00:00 - - - - - - - -
20.09.2018 08:00:00 22,3 18,2 8 4 W 1018,3 11 -
20.09.2018 07:00:00 - - - - - - - -
20.09.2018 06:00:00 - - - - - - - -
20.09.2018 05:00:00 20,6 18,3 4 2 SW 1017,8 11 -
20.09.2018 04:00:00 - - - - - - - -
20.09.2018 03:00:00 - - - - - - - -
20.09.2018 02:00:00 21,5 18,8 9 5 WNW 1018,6 11 -
20.09.2018 01:00:00 - - - - - - - -
20.09.2018 00:00:00 - - - - - - - -
19.09.2018 23:00:00 22,4 19,8 9 5 WNW 1018,9 11 -
19.09.2018 22:00:00 - - - - - - - -
19.09.2018 21:00:00 - - - - - - - -
19.09.2018 20:00:00 24,2 19,3 8 4 E 1018,3 11 0,0
19.09.2018 19:00:00 - - - - - - - -
19.09.2018 18:00:00 - - - - - - - -
19.09.2018 17:00:00 25,7 19,0 13 7 E 1017,5 8 -
19.09.2018 16:00:00 - - - - - - - -
19.09.2018 15:00:00 - - - - - - - -
19.09.2018 14:00:00 26,1 20,3 11 6 NE 1018,2 8 0,0
19.09.2018 13:00:00 - - - - - - - -
19.09.2018 12:00:00 - - - - - - - -
19.09.2018 11:00:00 25,8 20,2 11 6 N 1019,0 8 -

tt = Température de l'air
td = dewpoint
ff = Vitesse du vent
dd = Direction du vent
ppp = reduced air pressure
vv = visibility
rr = Quantités de précipitations

stations d'obs. à proximité